Location: Garshuizen
(53.3675°N, 6.7248°E)
Time: 05:44:24
(UTC+00:00)

Cosmos 1461 - Pass Details

Date: 15 May 2026
Orbit: 422 x 476 km, 65.0° (Epoch: 6 June)

Event Time Altitude Azimuth Distance (km) Brightness Sun altitude
Rises 21:20:58 0° 232° (SW) 2,538 6.1 -12.5°
Reaches altitude 10° 21:23:07 10° 236° (SW) 1,659 5.2 -12.6°
Maximum altitude 21:26:47 61° 318° (NW) 549 3.1 -12.9°
Drops below altitude 10° 21:30:26 10° 39° (NE) 1,649 5.5 -13.2°
Sets 21:32:35 0° 43° (NE) 2,521 6.4 -13.3°
